When you browse on this site, cookies collect data to enhance your experience and personalize the content and advertising you see.
Visit our Privacy Policy to learn more. By continuing to use the site, you agree to this use of cookies and data.
  • In Czech Republic
  • List of Countries
  • For 7 days
  • Water Temperature
  • Satellite Maps
  • Weather Map
  • Weather Widgets
  • user-avatar
    Login

    Hourly Weather Escaldes-Engordany

    Today, 21 January, Monday

    Time Temperature Precipitation Wind Pressure Humidity
    00:00 -4°C° 0 mm 2 mps 633 mmHg 89%
    01:00 -4°C° 0.1 mm 2 mps 633 mmHg 88%
    02:00 -4°C° 0.1 mm 2 mps 633 mmHg 88%
    03:00 -4°C° 0.1 mm 2 mps 633 mmHg 88%
    04:00 -4°C° 0.1 mm 2 mps 633 mmHg 88%
    05:00 -4°C° 0.1 mm 2 mps 634 mmHg 88%
    06:00 -5°C° 0 mm 3 mps 634 mmHg 88%
    07:00 -5°C° 0.2 mm 3 mps 634 mmHg 83%
    08:00 -4°C° 0.2 mm 3 mps 634 mmHg 79%
    09:00 -4°C° 0.2 mm 3 mps 635 mmHg 75%
    10:00 -2°C° 0.1 mm 3 mps 635 mmHg 71%
    11:00 -2°C° 0.1 mm 3 mps 635 mmHg 66%
    12:00 -1°C° 0.1 mm 3 mps 636 mmHg 61%
    13:00 -1°C° 0.1 mm 3 mps 636 mmHg 62%
    14:00 -1°C° 0.1 mm 3 mps 635 mmHg 62%
    15:00 -2°C° 0.1 mm 3 mps 635 mmHg 63%
    16:00 -4°C° 0 mm 3 mps 635 mmHg 69%
    17:00 -5°C° 0 mm 3 mps 634 mmHg 75%
    18:00 -6°C° 0 mm 2 mps 634 mmHg 82%
    19:00 -6°C° 0 mm 2 mps 634 mmHg 82%
    20:00 -7°C° 0 mm 2 mps 634 mmHg 82%
    21:00 -7°C° 0 mm 2 mps 634 mmHg 83%
    22:00 -8°C° 0 mm 2 mps 634 mmHg 80%
    23:00 -8°C° 0 mm 2 mps 634 mmHg 78%

    Tomorrow, 22 January, Tuesday

    Time Temperature Precipitation Wind Pressure Humidity
    00:00 -8°C° 0 mm 2 mps 633 mmHg 75%
    01:00 -9°C° 0 mm 2 mps 633 mmHg 70%
    02:00 -9°C° 0 mm 2 mps 633 mmHg 64%
    03:00 -9°C° 0 mm 2 mps 632 mmHg 59%
    04:00 -9°C° 0 mm 2 mps 632 mmHg 55%
    05:00 -9°C° 0 mm 2 mps 632 mmHg 52%
    06:00 -9°C° 0 mm 2 mps 631 mmHg 49%
    07:00 -8°C° 0 mm 2 mps 632 mmHg 48%
    08:00 -6°C° 0 mm 2 mps 632 mmHg 47%
    09:00 -5°C° 0 mm 2 mps 633 mmHg 46%
    10:00 -1°C° 0 mm 1 mps 632 mmHg 43%
    11:00 +1°C° 0 mm 1 mps 632 mmHg 39%
    12:00 +3°C° 0 mm 1 mps 632 mmHg 35%
    13:00 +2°C° 0.2 mm 1 mps 631 mmHg 44%
    14:00 +1°C° 0.2 mm 1 mps 630 mmHg 53%
    15:00 +1°C° 0.2 mm 1 mps 629 mmHg 62%
    16:00 -2°C° 0.5 mm 2 mps 629 mmHg 68%
    17:00 -3°C° 0.5 mm 2 mps 629 mmHg 74%
    18:00 -4°C° 0.5 mm 3 mps 629 mmHg 80%
    19:00 -5°C° 0.1 mm 3 mps 628 mmHg 82%
    20:00 -5°C° 0.1 mm 2 mps 628 mmHg 83%
    21:00 -6°C° 0.1 mm 2 mps 627 mmHg 84%
    22:00 -5°C° 0.2 mm 2 mps 627 mmHg 84%
    23:00 -5°C° 0.2 mm 2 mps 627 mmHg 84%

    Day after tomorrow, 23 January, Wednesday

    Time Temperature Precipitation Wind Pressure Humidity
    00:00 -4°C° 0.2 mm 2 mps 627 mmHg 83%
    01:00 -4°C° 0.4 mm 2 mps 627 mmHg 83%
    02:00 -4°C° 0.4 mm 2 mps 626 mmHg 84%
    03:00 -4°C° 0.4 mm 2 mps 626 mmHg 84%
    04:00 -2°C° 0.5 mm 1 mps 625 mmHg 85%
    05:00 -2°C° 0.5 mm 1 mps 624 mmHg 87%
    06:00 -3°C° 0.5 mm 1 mps 623 mmHg 89%
    07:00 -2°C° 1.8 mm 1 mps 623 mmHg 90%
    08:00 -4°C° 1.8 mm 2 mps 623 mmHg 92%
    09:00 -4°C° 1.8 mm 2 mps 622 mmHg 94%
    10:00 -5°C° 1.6 mm 3 mps 623 mmHg 92%
    11:00 -5°C° 1.6 mm 4 mps 623 mmHg 90%
    12:00 -6°C° 1.6 mm 5 mps 623 mmHg 88%
    13:00 -8°C° 0.9 mm 6 mps 623 mmHg 88%
    14:00 -9°C° 0.9 mm 7 mps 623 mmHg 88%
    15:00 -11°C° 0.9 mm 8 mps 622 mmHg 87%
    16:00 -11°C° 0.4 mm 8 mps 623 mmHg 87%
    17:00 -12°C° 0.4 mm 7 mps 623 mmHg 87%
    18:00 -12°C° 0.4 mm 7 mps 623 mmHg 88%
    19:00 -12°C° 0.4 mm 8 mps 624 mmHg 88%
    20:00 -13°C° 0.4 mm 8 mps 624 mmHg 88%
    21:00 -13°C° 0.4 mm 8 mps 624 mmHg 88%
    22:00 -13°C° 0.9 mm 8 mps 625 mmHg 89%
    23:00 -13°C° 0.9 mm 7 mps 625 mmHg 90%

    24 January, Thursday

    Time Temperature Precipitation Wind Pressure Humidity
    00:00 -13°C° 0.9 mm 7 mps 626 mmHg 91%
    01:00 -13°C° 0.6 mm 7 mps 626 mmHg 90%
    02:00 -12°C° 0.6 mm 6 mps 626 mmHg 90%
    03:00 -12°C° 0.6 mm 6 mps 627 mmHg 90%
    04:00 -12°C° 0.4 mm 6 mps 627 mmHg 89%
    05:00 -12°C° 0.4 mm 6 mps 627 mmHg 88%
    06:00 -12°C° 0.4 mm 6 mps 627 mmHg 87%
    07:00 -13°C° 0.2 mm 7 mps 628 mmHg 85%
    08:00 -13°C° 0.2 mm 7 mps 629 mmHg 83%
    09:00 -13°C° 0.2 mm 7 mps 629 mmHg 82%
    10:00 -12°C° 0 mm 7 mps 630 mmHg 80%
    11:00 -10°C° 0 mm 6 mps 630 mmHg 78%
    12:00 -9°C° 0 mm 6 mps 631 mmHg 76%
    13:00 -9°C° 0 mm 6 mps 631 mmHg 75%
    14:00 -8°C° 0 mm 5 mps 631 mmHg 74%
    15:00 -8°C° 0 mm 5 mps 631 mmHg 73%
    16:00 -10°C° 0 mm 5 mps 631 mmHg 75%
    17:00 -11°C° 0 mm 4 mps 631 mmHg 76%
    18:00 -14°C° 0 mm 4 mps 631 mmHg 78%
    19:00 -12°C° 0 mm 4 mps 631 mmHg 75%
    20:00 -12°C° 0 mm 4 mps 632 mmHg 71%
    21:00 -12°C° 0 mm 4 mps 632 mmHg 67%
    22:00 -11°C° 0 mm 4 mps 633 mmHg 68%
    23:00 -11°C° 0 mm 4 mps 633 mmHg 69%

    25 January, Friday

    Time Temperature Precipitation Wind Pressure Humidity
    00:00 -10°C° 0 mm 4 mps 633 mmHg 70%
    01:00 -9°C° 0 mm 4 mps 633 mmHg 73%
    02:00 -8°C° 0 mm 4 mps 633 mmHg 76%
    03:00 -8°C° 0 mm 4 mps 634 mmHg 79%
    04:00 -5°C° 0 mm 4 mps 634 mmHg 83%
    05:00 -4°C° 0 mm 4 mps 635 mmHg 86%
    06:00 -3°C° 0 mm 4 mps 635 mmHg 89%
    07:00 -3°C° 0 mm 4 mps 636 mmHg 89%
    08:00 -2°C° 0 mm 4 mps 636 mmHg 88%
    09:00 -1°C° 0 mm 4 mps 637 mmHg 88%
    10:00 0°C° 0 mm 4 mps 637 mmHg 87%
    11:00 0°C° 0 mm 4 mps 637 mmHg 86%
    12:00 +1°C° 0 mm 4 mps 637 mmHg 86%
    13:00 +1°C° 0 mm 4 mps 637 mmHg 86%
    14:00 +1°C° 0 mm 4 mps 637 mmHg 87%
    15:00 +2°C° 0 mm 3 mps 637 mmHg 87%
    16:00 +2°C° 0 mm 3 mps 637 mmHg 89%
    17:00 +1°C° 0 mm 3 mps 637 mmHg 90%
    18:00 0°C° 0 mm 3 mps 637 mmHg 92%
    19:00 0°C° 0 mm 3 mps 637 mmHg 92%
    20:00 0°C° 0 mm 3 mps 637 mmHg 92%
    21:00 0°C° 0 mm 3 mps 637 mmHg 92%
    22:00 -1°C° 0 mm 3 mps 637 mmHg 92%
    23:00 -2°C° 0 mm 3 mps 637 mmHg 92%

    26 January, Saturday

    Time Temperature Precipitation Wind Pressure Humidity
    00:00 -2°C° 0 mm 2 mps 636 mmHg 93%
    01:00 -3°C° 0 mm 2 mps 636 mmHg 92%
    02:00 -3°C° 0 mm 2 mps 636 mmHg 91%
    03:00 -4°C° 0 mm 2 mps 635 mmHg 90%
    04:00 -4°C° 0 mm 2 mps 635 mmHg 88%
    05:00 -4°C° 0 mm 2 mps 635 mmHg 87%
    06:00 -5°C° 0 mm 2 mps 634 mmHg 85%
    07:00 -3°C° 0 mm 2 mps 635 mmHg 83%
    08:00 -2°C° 0 mm 2 mps 636 mmHg 82%
    09:00 -1°C° 0 mm 2 mps 636 mmHg 80%
    10:00 +3°C° 0 mm 1 mps 636 mmHg 81%
    11:00 +4°C° 0 mm 1 mps 636 mmHg 81%
    12:00 +5°C° 0 mm 0 mps 637 mmHg 81%
    13:00 +5°C° 0 mm 0 mps 636 mmHg 84%
    14:00 +4°C° 0 mm 0 mps 635 mmHg 86%
    15:00 +4°C° 0 mm 0 mps 635 mmHg 88%
    16:00 +4°C° 0 mm 1 mps 634 mmHg 91%
    17:00 +2°C° 0 mm 1 mps 634 mmHg 93%
    18:00 +1°C° 0 mm 1 mps 633 mmHg 95%
    19:00 +1°C° 0 mm 1 mps 633 mmHg 95%
    20:00 0°C° 0 mm 1 mps 633 mmHg 95%
    21:00 0°C° 0 mm 1 mps 632 mmHg 95%
    22:00 -1°C° 0 mm 1 mps 632 mmHg 94%
    23:00 -1°C° 0 mm 1 mps 632 mmHg 93%
    Show more